Location: Boćki
(52.6512°N, 23.0459°E)
Time: 20:03:40
(UTC+02:00)

ISS - Pass Details

Date: 28 March 2019
Orbit: 408 x 410 km, 51.6° (Epoch: 22 April)

Event Time Altitude Azimuth Distance (km) Brightness Sun altitude
Rises 19:20:07 0° 262° (W) 2,337 1.1 -13.3°
Reaches altitude 10° 19:22:12 10° 260° (W) 1,476 -0.1 -13.6°
Maximum altitude 19:25:30 74° 175° (S) 430 -3.9 -14.1°
Enters shadow 19:27:02 29° 95° (E) 786 -2.9 -14.3°
